Time,TemperatureF,DewpointF,PressureIn,WindDirection,WindDirectionDegrees,WindSpeedMPH,WindSpeedGustMPH,Humidity,HourlyPrecipIn,Conditions,Clouds,dailyrainin,SolarRadiationWatts/m^2,SoftwareType,DateUTC
2013-03-27 00:00:00,27.9,25.3,30.16,NE,55,0.0,0.0,90,0.00,RA,,0.00,0.0,WeatherDisplay:10.37,2013-03-27 00:00:00,
2013-03-27 00:05:00,27.8,25.2,30.16,NE,55,0.0,0.0,90,0.00,RA,,0.00,0.0,WeatherDisplay:10.37,2013-03-27 00:05:00,
2013-03-27 00:10:00,27.6,25.1,30.16,NE,55,0.0,0.0,90,0.00,CLR,,0.00,0.0,WeatherDisplay:10.37,2013-03-27 00:10:00,
2013-03-27 00:15:00,27.5,25.0,30.16,NE,55,0.0,0.0,90,0.00,CLR,,0.00,0.0,WeatherDisplay:10.37,2013-03-27 00:15:00,
2013-03-27 00:21:00,27.3,25.0,30.16,NE,55,0.0,0.0,91,0.00,CLR,,0.00,0.0,WeatherDisplay:10.37,2013-03-27 00:21:00,
2013-03-27 00:26:00,27.3,25.0,30.16,NE,55,0.0,0.0,91,0.00,CLR,,0.00,0.0,WeatherDisplay:10.37,2013-03-27 00:26:00,
2013-03-27 00:31:00,27.2,24.9,30.16,NE,55,0.0,0.0,91,0.00,CLR,,0.00,0.0,WeatherDisplay:10.37,2013-03-27 00:31:00,
2013-03-27 00:36:00,27.2,24.9,30.16,NE,55,0.0,0.0,91,0.00,CLR,,0.00,0.0,WeatherDisplay:10.37,2013-03-27 00:36:00,
2013-03-27 00:41:00,27.0,24.7,30.16,NE,55,0.0,0.0,91,0.00,CLR,,0.00,0.0,WeatherDisplay:10.37,2013-03-27 00:41:00,
2013-03-27 00:46:00,27.0,25.0,30.16,NE,55,0.0,0.0,92,0.00,CLR,,0.00,0.0,WeatherDisplay:10.37,2013-03-27 00:46:00,
2013-03-27 00:51:00,26.9,24.9,30.16,NE,55,0.0,0.0,92,0.00,CLR,,0.00,0.0,WeatherDisplay:10.37,2013-03-27 00:51:00,
2013-03-27 00:56:00,26.9,24.9,30.16,NE,55,0.0,0.0,92,0.00,CLR,,0.00,0.0,WeatherDisplay:10.37,2013-03-27 00:56:00,
2013-03-27 02:15:00,27.3,25.8,30.15,NE,55,0.0,0.0,94,0.00,CLR,,0.00,0.0,WeatherDisplay:10.37,2013-03-27 02:15:00,
2013-03-27 02:20:00,27.3,25.8,30.14,NE,55,0.0,0.0,94,0.00,CLR,,0.00,0.0,WeatherDisplay:10.37,2013-03-27 02:20:00,
2013-03-27 02:26:00,27.5,26.3,30.14,NE,55,0.0,0.0,95,0.00,CLR,,0.00,0.0,WeatherDisplay:10.37,2013-03-27 02:26:00,
2013-03-27 02:31:00,27.6,26.4,30.14,NE,55,0.0,0.0,95,0.00,CLR,,0.00,0.0,WeatherDisplay:10.37,2013-03-27 02:31:00,
2013-03-27 02:37:00,27.6,26.4,30.14,NE,55,0.0,0.0,95,0.00,CLR,,0.00,0.0,WeatherDisplay:10.37,2013-03-27 02:37:00,
2013-03-27 02:42:00,27.6,26.4,30.14,NE,55,0.0,0.0,95,0.00,CLR,,0.00,0.0,WeatherDisplay:10.37,2013-03-27 02:42:00,
2013-03-27 02:47:00,27.6,26.4,30.14,NE,55,0.0,0.0,95,0.00,CLR,,0.00,0.0,WeatherDisplay:10.37,2013-03-27 02:47:00,
2013-03-27 02:52:00,27.6,26.4,30.14,NE,55,0.0,0.0,95,0.00,CLR,,0.00,0.0,WeatherDisplay:10.37,2013-03-27 02:52:00,
2013-03-27 02:58:00,27.6,26.4,30.14,NE,55,0.0,0.0,95,0.00,CLR,,0.00,0.0,WeatherDisplay:10.37,2013-03-27 02:58:00,
2013-03-27 03:03:00,27.6,26.4,30.14,NE,55,0.0,0.0,95,0.00,CLR,,0.00,0.0,WeatherDisplay:10.37,2013-03-27 03:03:00,
2013-03-27 03:08:00,27.6,26.4,30.14,NE,55,0.0,0.0,95,0.00,CLR,,0.00,0.0,WeatherDisplay:10.37,2013-03-27 03:08:00,
2013-03-27 03:13:00,27.9,26.9,30.14,NE,55,0.0,0.0,96,0.00,CLR,,0.00,0.0,WeatherDisplay:10.37,2013-03-27 03:13:00,
2013-03-27 03:18:00,28.2,27.2,30.13,NE,55,0.0,0.0,96,0.00,CLR,,0.00,0.0,WeatherDisplay:10.37,2013-03-27 03:18:00,
2013-03-27 03:24:00,28.5,27.5,30.13,NE,55,3.5,3.5,96,0.00,CLR,,0.00,0.0,WeatherDisplay:10.37,2013-03-27 03:24:00,
2013-03-27 03:29:00,29.0,28.0,30.13,NE,55,0.0,0.0,96,0.00,CLR,,0.00,0.0,WeatherDisplay:10.37,2013-03-27 03:29:00,
2013-03-27 03:34:00,29.3,28.3,30.13,NE,55,0.0,0.0,96,0.00,CLR,,0.00,0.0,WeatherDisplay:10.37,2013-03-27 03:34:00,
2013-03-27 03:39:00,29.5,28.5,30.13,NE,55,0.0,0.0,96,0.00,CLR,,0.00,0.0,WeatherDisplay:10.37,2013-03-27 03:39:00,
2013-03-27 03:44:00,29.7,29.0,30.13,NE,55,1.2,1.2,97,0.00,CLR,,0.00,0.0,WeatherDisplay:10.37,2013-03-27 03:44:00,
2013-03-27 03:49:00,30.0,29.3,30.13,NE,55,1.0,0.0,97,0.00,CLR,,0.00,0.0,WeatherDisplay:10.37,2013-03-27 03:49:00,
2013-03-27 03:55:00,30.4,29.7,30.13,NE,55,2.3,2.3,97,0.00,CLR,,0.00,0.0,WeatherDisplay:10.37,2013-03-27 03:55:00,
2013-03-27 04:00:00,30.9,30.4,30.13,NE,52,2.3,2.3,98,0.00,CLR,,0.00,0.0,WeatherDisplay:10.37,2013-03-27 04:00:00,
2013-03-27 04:02:00,31.0,30.5,30.12,NE,52,3.5,3.5,98,0.00,CLR,,0.00,0.0,WeatherDisplay:10.37,2013-03-27 04:02:00,
2013-03-27 04:07:00,31.3,30.8,30.13,NE,54,2.3,2.3,98,0.00,CLR,,0.00,0.0,WeatherDisplay:10.37,2013-03-27 04:07:00,
2013-03-27 04:12:00,31.5,31.0,30.12,NE,54,1.2,0.0,98,0.00,CLR,,0.00,0.0,WeatherDisplay:10.37,2013-03-27 04:12:00,
2013-03-27 04:17:00,31.6,31.1,30.12,NE,54,2.3,2.3,98,0.00,CLR,,0.00,0.0,WeatherDisplay:10.37,2013-03-27 04:17:00,
2013-03-27 04:22:00,31.6,31.1,30.12,NE,52,2.3,2.3,98,0.00,CLR,,0.00,0.0,WeatherDisplay:10.37,2013-03-27 04:22:00,
2013-03-27 04:27:00,31.8,31.3,30.12,NE,54,2.3,2.3,98,0.00,CLR,,0.00,0.0,WeatherDisplay:10.37,2013-03-27 04:27:00,
2013-03-27 04:33:00,31.8,31.6,30.12,NE,54,0.0,0.0,99,0.00,,,0.00,0.0,WeatherDisplay:10.37,2013-03-27 04:33:00,
2013-03-27 04:38:00,31.8,31.6,30.12,NE,54,2.3,2.3,99,0.00,,,0.00,0.0,WeatherDisplay:10.37,2013-03-27 04:38:00,
2013-03-27 04:43:00,31.9,31.7,30.12,NE,54,2.3,2.3,99,0.00,,,0.00,0.0,WeatherDisplay:10.37,2013-03-27 04:43:00,
2013-03-27 04:48:00,31.9,31.7,30.12,NE,54,1.2,1.2,99,0.00,,,0.00,0.0,WeatherDisplay:10.37,2013-03-27 04:48:00,
2013-03-27 04:54:00,31.9,31.7,30.12,NE,54,0.0,0.0,99,0.00,,,0.00,0.0,WeatherDisplay:10.37,2013-03-27 04:54:00,
2013-03-27 04:59:00,32.1,31.9,30.12,NE,54,1.2,0.0,99,0.00,,,0.00,0.0,WeatherDisplay:10.37,2013-03-27 04:59:00,
2013-03-27 05:04:00,32.1,31.9,30.12,NE,55,3.5,3.5,99,0.00,,,0.00,0.0,WeatherDisplay:10.37,2013-03-27 05:04:00,
2013-03-27 05:09:00,32.2,32.0,30.12,NE,55,2.3,2.3,99,0.00,,,0.00,0.0,WeatherDisplay:10.37,2013-03-27 05:09:00,
2013-03-27 05:14:00,32.4,32.4,30.12,NE,55,2.3,2.3,100,0.00,,,0.00,0.0,WeatherDisplay:10.37,2013-03-27 05:14:00,
2013-03-27 05:20:00,32.4,32.4,30.12,NNE,20,3.5,3.5,100,0.00,,,0.00,0.0,WeatherDisplay:10.37,2013-03-27 05:20:00,
2013-03-27 05:25:00,32.4,32.4,30.12,NNE,20,1.2,0.0,100,0.00,,,0.00,0.0,WeatherDisplay:10.37,2013-03-27 05:25:00,
2013-03-27 05:30:00,32.4,32.4,30.12,NNE,28,3.5,3.5,100,0.00,,,0.00,0.0,WeatherDisplay:10.37,2013-03-27 05:30:00,
2013-03-27 05:35:00,32.4,32.4,30.12,NNE,28,2.3,2.3,100,0.00,,,0.00,0.0,WeatherDisplay:10.37,2013-03-27 05:35:00,
2013-03-27 05:40:00,32.4,32.4,30.12,NE,47,2.3,2.3,100,0.00,,,0.00,0.0,WeatherDisplay:10.37,2013-03-27 05:40:00,
2013-03-27 05:46:00,32.5,32.5,30.12,NE,48,2.3,2.3,100,0.00,,,0.00,0.0,WeatherDisplay:10.37,2013-03-27 05:46:00,
2013-03-27 05:51:00,32.5,32.5,30.12,NE,48,2.3,2.3,100,0.00,,,0.00,0.0,WeatherDisplay:10.37,2013-03-27 05:51:00,
2013-03-27 05:56:00,32.7,32.7,30.12,NE,52,2.3,2.3,100,0.00,,,0.00,0.0,WeatherDisplay:10.37,2013-03-27 05:56:00,
2013-03-27 06:02:00,32.7,32.7,30.12,ENE,69,5.8,5.8,100,0.00,OVC,,0.00,0.0,WeatherDisplay:10.37,2013-03-27 06:02:00,
2013-03-27 06:07:00,32.7,32.7,30.12,East,83,7.0,7.0,100,0.00,OVC,,0.00,5.0,WeatherDisplay:10.37,2013-03-27 06:07:00,
2013-03-27 06:12:00,32.7,32.7,30.12,ENE,61,2.3,2.3,100,0.00,OVC,,0.00,5.0,WeatherDisplay:10.37,2013-03-27 06:12:00,
2013-03-27 06:17:00,32.7,32.7,30.12,ENE,72,3.5,3.5,100,0.00,BKN,,0.00,5.0,WeatherDisplay:10.37,2013-03-27 06:17:00,
2013-03-27 06:22:00,32.8,32.8,30.12,NE,44,4.0,4.0,100,0.00,BKN,,0.00,7.0,WeatherDisplay:10.37,2013-03-27 06:22:00,
2013-03-27 06:28:00,32.8,32.8,30.12,NE,47,5.8,5.8,100,0.00,OVC,,0.00,7.0,WeatherDisplay:10.37,2013-03-27 06:28:00,
2013-03-27 06:33:00,32.8,32.8,30.12,NE,34,3.5,3.5,100,0.00,OVC,,0.00,11.0,WeatherDisplay:10.37,2013-03-27 06:33:00,
2013-03-27 06:38:00,32.8,32.8,30.12,NE,56,3.5,3.5,100,0.00,OVC,,0.00,11.0,WeatherDisplay:10.37,2013-03-27 06:38:00,
2013-03-27 06:43:00,32.8,32.8,30.12,East,95,3.5,3.5,100,0.00,OVC,,0.00,9.0,WeatherDisplay:10.37,2013-03-27 06:43:00,
2013-03-27 06:49:00,32.9,32.9,30.12,NNE,27,3.5,3.5,100,0.00,OVC,,0.00,11.0,WeatherDisplay:10.37,2013-03-27 06:49:00,
2013-03-27 06:54:00,32.8,32.8,30.12,NE,44,3.5,3.5,100,0.00,OVC,,0.00,12.0,WeatherDisplay:10.37,2013-03-27 06:54:00,
2013-03-27 06:59:00,32.9,32.9,30.12,NE,51,2.3,2.3,100,0.00,OVC,,0.00,19.0,WeatherDisplay:10.37,2013-03-27 06:59:00,
2013-03-27 07:04:00,32.9,32.9,30.12,NE,51,3.5,3.5,100,0.00,OVC,,0.00,16.0,WeatherDisplay:10.37,2013-03-27 07:04:00,
2013-03-27 07:10:00,32.9,32.9,30.12,NE,48,3.5,3.5,100,0.00,OVC,,0.00,12.0,WeatherDisplay:10.37,2013-03-27 07:10:00,
2013-03-27 07:15:00,32.8,32.8,30.12,NE,50,1.0,6.0,100,0.00,OVC,,0.00,26.0,WeatherDisplay:10.37,2013-03-27 07:15:00,
2013-03-27 07:20:00,32.9,32.9,30.12,NE,51,3.5,3.5,100,0.00,OVC,,0.00,28.0,WeatherDisplay:10.37,2013-03-27 07:20:00,
2013-03-27 07:25:00,32.9,32.9,30.12,East,90,5.8,5.8,100,0.00,OVC,,0.00,28.0,WeatherDisplay:10.37,2013-03-27 07:25:00,
2013-03-27 07:30:00,32.9,32.9,30.12,ENE,78,3.5,3.5,100,0.00,OVC,,0.00,37.0,WeatherDisplay:10.37,2013-03-27 07:30:00,
2013-03-27 07:36:00,32.9,32.9,30.12,East,88,3.5,3.5,100,0.00,OVC,,0.00,35.0,WeatherDisplay:10.37,2013-03-27 07:36:00,
2013-03-27 07:41:00,33.1,33.1,30.12,NE,40,3.5,3.5,100,0.00,OVC,,0.00,55.0,WeatherDisplay:10.37,2013-03-27 07:41:00,
2013-03-27 07:46:00,33.2,33.2,30.12,East,83,6.9,6.9,100,0.00,BKN,,0.00,77.0,WeatherDisplay:10.37,2013-03-27 07:46:00,
2013-03-27 07:51:00,33.4,33.4,30.12,NE,56,4.6,4.6,100,0.00,FEW,,0.00,169.0,WeatherDisplay:10.37,2013-03-27 07:51:00,
2013-03-27 07:56:00,33.7,33.7,30.12,East,100,5.0,5.0,100,0.00,CLR,,0.00,195.0,WeatherDisplay:10.37,2013-03-27 07:56:00,
2013-03-27 08:02:00,34.0,34.0,30.12,NNE,27,4.6,4.6,100,0.00,SCT,,0.00,158.0,WeatherDisplay:10.37,2013-03-27 08:02:00,
2013-03-27 08:07:00,34.1,34.1,30.12,NE,54,5.0,5.0,100,0.00,BKN,,0.00,113.0,WeatherDisplay:10.37,2013-03-27 08:07:00,
2013-03-27 08:12:00,34.1,34.1,30.12,NE,56,4.6,4.6,100,0.00,BKN,,0.00,109.0,WeatherDisplay:10.37,2013-03-27 08:12:00,
2013-03-27 08:17:00,34.0,34.0,30.12,NE,42,5.8,5.8,100,0.00,BKN,,0.00,88.0,WeatherDisplay:10.37,2013-03-27 08:17:00,
2013-03-27 08:22:00,34.1,34.1,30.12,East,93,5.8,5.8,100,0.00,BKN,,0.00,109.0,WeatherDisplay:10.37,2013-03-27 08:22:00,
2013-03-27 08:28:00,34.1,34.1,30.12,ESE,103,6.9,6.9,100,0.00,OVC,,0.00,97.0,WeatherDisplay:10.37,2013-03-27 08:28:00,
2013-03-27 08:33:00,34.3,34.3,30.12,East,99,3.5,3.5,100,0.00,OVC,,0.00,102.0,WeatherDisplay:10.37,2013-03-27 08:33:00,
2013-03-27 08:38:00,34.3,34.3,30.12,North,11,3.5,3.5,100,0.00,OVC,,0.00,107.0,WeatherDisplay:10.37,2013-03-27 08:38:00,
2013-03-27 08:43:00,34.4,34.4,30.12,NE,35,5.8,5.8,100,0.00,SCT,,0.00,155.0,WeatherDisplay:10.37,2013-03-27 08:43:00,
2013-03-27 08:48:00,34.7,34.7,30.12,NE,52,6.9,6.9,100,0.00,SCT,,0.00,185.0,WeatherDisplay:10.37,2013-03-27 08:48:00,
2013-03-27 08:54:00,35.0,34.7,30.12,ENE,59,10.4,10.4,99,0.00,SCT,,0.00,218.0,WeatherDisplay:10.37,2013-03-27 08:54:00,
2013-03-27 08:59:00,35.3,34.8,30.12,ENE,72,6.0,6.0,98,0.00,SCT,,0.00,208.0,WeatherDisplay:10.37,2013-03-27 08:59:00,
2013-03-27 09:04:00,35.5,34.7,30.12,NE,40,8.1,8.1,97,0.00,BKN,,0.00,179.0,WeatherDisplay:10.37,2013-03-27 09:04:00,
2013-03-27 09:09:00,35.5,34.5,30.12,NE,47,6.9,6.9,96,0.00,OVC,,0.00,100.0,WeatherDisplay:10.37,2013-03-27 09:09:00,
2013-03-27 09:14:00,35.5,34.5,30.12,ENE,62,8.1,8.1,96,0.00,OVC,,0.00,81.0,WeatherDisplay:10.37,2013-03-27 09:14:00,
2013-03-27 09:20:00,35.3,34.3,30.12,ESE,112,11.5,11.5,96,0.00,OVC,,0.00,137.0,WeatherDisplay:10.37,2013-03-27 09:20:00,
2013-03-27 09:25:00,35.5,34.5,30.12,NE,37,8.1,8.1,96,0.00,BKN,,0.00,179.0,WeatherDisplay:10.37,2013-03-27 09:25:00,
2013-03-27 09:30:00,36.0,35.0,30.12,East,92,11.5,11.5,96,0.00,SCT,,0.00,282.0,WeatherDisplay:10.37,2013-03-27 09:30:00,
2013-03-27 09:35:00,37.0,35.7,30.12,SE,133,5.8,5.8,95,0.00,SCT,,0.00,250.0,WeatherDisplay:10.37,2013-03-27 09:35:00,
2013-03-27 09:40:00,37.2,35.6,30.12,ESE,117,8.1,8.1,94,0.00,BKN,,0.00,215.0,WeatherDisplay:10.37,2013-03-27 09:40:00,
2013-03-27 09:45:00,36.8,34.7,30.12,East,80,10.4,10.4,92,0.00,OVC,,0.00,135.0,WeatherDisplay:10.37,2013-03-27 09:45:00,
2013-03-27 09:50:00,36.5,34.7,30.12,East,86,8.1,8.1,93,0.01,RA,,0.01,116.0,WeatherDisplay:10.37,2013-03-27 09:50:00,
2013-03-27 09:55:00,36.2,34.4,30.12,ENE,58,10.4,10.4,93,0.01,RA,,0.01,151.0,WeatherDisplay:10.37,2013-03-27 09:55:00,
2013-03-27 10:00:00,36.0,34.2,30.12,NE,44,8.1,8.1,93,0.01,BKN,,0.01,225.0,WeatherDisplay:10.37,2013-03-27 10:00:00,
2013-03-27 10:05:00,36.3,34.2,30.12,ESE,106,12.7,12.7,92,0.01,BKN,,0.01,192.0,WeatherDisplay:10.37,2013-03-27 10:05:00,
2013-03-27 10:11:00,36.5,34.4,30.12,SE,138,6.9,6.9,92,0.01,SCT,,0.01,333.0,WeatherDisplay:10.37,2013-03-27 10:11:00,
2013-03-27 10:16:00,37.0,34.9,30.12,East,80,8.0,8.0,92,0.01,SCT,,0.01,303.0,WeatherDisplay:10.37,2013-03-27 10:16:00,
2013-03-27 10:21:00,37.2,34.8,30.12,NE,44,12.0,12.0,91,0.01,BKN,,0.01,241.0,WeatherDisplay:10.37,2013-03-27 10:21:00,
2013-03-27 10:26:00,36.5,34.1,30.12,ENE,76,16.1,16.1,91,0.01,OVC,,0.01,169.0,WeatherDisplay:10.37,2013-03-27 10:26:00,
2013-03-27 10:32:00,36.0,33.9,30.12,ENE,58,12.7,12.7,92,0.01,OVC,,0.01,139.0,WeatherDisplay:10.37,2013-03-27 10:32:00,
2013-03-27 10:37:00,35.9,33.8,30.12,East,96,11.5,11.5,92,0.01,BKN,,0.01,204.0,WeatherDisplay:10.37,2013-03-27 10:37:00,
2013-03-27 10:42:00,36.3,34.7,30.12,North,0,6.9,6.9,94,0.01,BKN,,0.01,267.0,WeatherDisplay:10.37,2013-03-27 10:42:00,
2013-03-27 10:47:00,36.8,35.2,30.12,East,96,5.8,5.8,94,0.01,BKN,,0.01,262.0,WeatherDisplay:10.37,2013-03-27 10:47:00,
2013-03-27 10:52:00,36.8,35.0,30.12,ENE,78,10.4,10.4,93,0.00,SCT,,0.01,320.0,WeatherDisplay:10.37,2013-03-27 10:52:00,
2013-03-27 10:58:00,37.5,35.4,30.12,ENE,73,5.8,5.8,92,0.00,FEW,,0.01,429.0,WeatherDisplay:10.37,2013-03-27 10:58:00,
2013-03-27 11:03:00,38.2,35.2,30.12,ENE,75,11.5,11.5,89,0.00,CLR,,0.01,843.0,WeatherDisplay:10.37,2013-03-27 11:03:00,
2013-03-27 11:08:00,38.3,35.1,30.11,ESE,104,6.9,6.9,88,0.00,SCT,,0.01,403.0,WeatherDisplay:10.37,2013-03-27 11:08:00,
2013-03-27 11:13:00,38.6,34.8,30.11,ENE,62,5.8,5.8,86,0.00,SCT,,0.01,354.0,WeatherDisplay:10.37,2013-03-27 11:13:00,
2013-03-27 11:18:00,38.6,34.5,30.11,NE,51,5.8,5.8,85,0.00,SCT,,0.01,422.0,WeatherDisplay:10.37,2013-03-27 11:18:00,
2013-03-27 11:23:00,38.6,34.5,30.11,East,82,6.9,6.9,85,0.00,BKN,,0.01,229.0,WeatherDisplay:10.37,2013-03-27 11:23:00,
2013-03-27 11:29:00,38.5,34.4,30.11,ENE,64,11.5,11.5,85,0.00,OVC,,0.01,185.0,WeatherDisplay:10.37,2013-03-27 11:29:00,
2013-03-27 11:34:00,38.2,33.8,30.11,NNE,27,11.5,11.5,84,0.00,BKN,,0.01,276.0,WeatherDisplay:10.37,2013-03-27 11:34:00,
2013-03-27 11:39:00,38.2,33.8,30.11,ESE,102,11.5,11.5,84,0.00,SCT,,0.01,382.0,WeatherDisplay:10.37,2013-03-27 11:39:00,
2013-03-27 11:44:00,38.5,33.8,30.11,NE,48,11.5,11.5,83,0.00,SCT,,0.01,347.0,WeatherDisplay:10.37,2013-03-27 11:44:00,
2013-03-27 11:49:00,39.1,34.7,30.11,ESE,109,8.1,8.1,84,0.00,SCT,,0.01,371.0,WeatherDisplay:10.37,2013-03-27 11:49:00,
2013-03-27 11:54:00,39.3,34.3,30.11,ENE,75,5.8,5.8,82,0.00,SCT,,0.01,340.0,WeatherDisplay:10.37,2013-03-27 11:54:00,
2013-03-27 12:00:00,39.6,34.2,30.10,East,93,8.1,8.1,81,0.00,SCT,,0.01,526.0,WeatherDisplay:10.37,2013-03-27 12:00:00,
2013-03-27 12:05:00,39.6,33.9,30.10,ENE,75,8.1,8.1,80,0.00,SCT,,0.01,343.0,WeatherDisplay:10.37,2013-03-27 12:05:00,
2013-03-27 12:10:00,39.8,34.1,30.10,NE,40,8.1,8.1,80,0.00,SCT,,0.01,391.0,WeatherDisplay:10.37,2013-03-27 12:10:00,
2013-03-27 12:15:00,40.5,34.5,30.10,ENE,75,11.5,11.5,79,0.00,BKN,,0.01,264.0,WeatherDisplay:10.37,2013-03-27 12:15:00,
2013-03-27 12:20:00,40.1,34.1,30.10,ENE,66,11.5,11.5,79,0.00,OVC,,0.01,248.0,WeatherDisplay:10.37,2013-03-27 12:20:00,
2013-03-27 12:25:00,39.5,33.2,30.10,East,96,18.0,18.0,78,0.00,BKN,,0.01,209.0,WeatherDisplay:10.37,2013-03-27 12:25:00,
2013-03-27 12:30:00,38.9,33.3,30.10,East,97,16.1,16.1,80,0.00,OVC,,0.01,150.0,WeatherDisplay:10.37,2013-03-27 12:30:00,
2013-03-27 12:35:00,38.2,33.5,30.11,East,92,16.1,16.1,83,0.00,OVC,,0.01,120.0,WeatherDisplay:10.37,2013-03-27 12:35:00,
2013-03-27 12:41:00,37.0,34.1,30.11,East,95,10.4,10.4,89,0.00,OVC,,0.01,155.0,WeatherDisplay:10.37,2013-03-27 12:41:00,
2013-03-27 12:46:00,36.2,34.4,30.11,North,0,10.4,10.4,93,0.00,OVC,,0.01,218.0,WeatherDisplay:10.37,2013-03-27 12:46:00,
2013-03-27 12:51:00,36.5,35.7,30.11,NE,34,5.8,5.8,97,0.00,SCT,,0.01,329.0,WeatherDisplay:10.37,2013-03-27 12:51:00,
2013-03-27 12:56:00,37.0,36.5,30.11,North,359,5.8,5.8,98,0.00,CLR,,0.01,640.0,WeatherDisplay:10.37,2013-03-27 12:56:00,
2013-03-27 13:01:00,37.9,37.6,30.11,NE,55,5.8,5.8,99,0.00,CLR,,0.01,663.0,WeatherDisplay:10.37,2013-03-27 13:01:00,
2013-03-27 13:06:00,38.3,37.3,30.10,North,11,6.9,6.9,96,0.00,FEW,,0.01,516.0,WeatherDisplay:10.37,2013-03-27 13:06:00,
2013-03-27 13:11:00,38.8,37.2,30.10,NE,47,4.6,4.6,94,0.00,CLR,,0.01,699.0,WeatherDisplay:10.37,2013-03-27 13:11:00,
2013-03-27 13:16:00,38.8,36.4,30.10,East,83,11.0,11.0,91,0.00,OVC,,0.01,137.0,WeatherDisplay:10.37,2013-03-27 13:16:00,
2013-03-27 13:21:00,39.5,36.5,30.09,NE,45,8.1,8.1,89,0.00,FEW,,0.01,834.0,WeatherDisplay:10.37,2013-03-27 13:21:00,
2013-03-27 13:27:00,40.5,36.9,30.09,NNW,337,8.1,8.1,87,0.00,SCT,,0.01,308.0,WeatherDisplay:10.37,2013-03-27 13:27:00,
2013-03-27 13:32:00,40.1,34.4,30.09,NNE,27,6.9,6.9,80,0.00,BKN,,0.01,274.0,WeatherDisplay:10.37,2013-03-27 13:32:00,
2013-03-27 13:37:00,41.1,35.7,30.09,SE,136,10.4,10.4,81,0.00,CLR,,0.01,704.0,WeatherDisplay:10.37,2013-03-27 13:37:00,
2013-03-27 13:42:00,42.3,35.6,30.09,NNE,24,9.2,9.2,77,0.00,OVC,,0.01,125.0,WeatherDisplay:10.37,2013-03-27 13:42:00,
2013-03-27 13:48:00,41.8,35.4,30.09,ENE,75,4.6,4.6,78,0.00,CLR,,0.01,727.0,WeatherDisplay:10.37,2013-03-27 13:48:00,
2013-03-27 13:53:00,41.3,34.3,30.09,ENE,66,8.1,8.1,76,0.00,OVC,,0.01,225.0,WeatherDisplay:10.37,2013-03-27 13:53:00,
2013-03-27 13:58:00,40.3,33.7,30.09,East,83,10.4,10.4,77,0.00,OVC,,0.01,172.0,WeatherDisplay:10.37,2013-03-27 13:58:00,
2013-03-27 14:03:00,40.6,33.0,30.09,East,93,14.0,14.0,74,0.00,BKN,,0.01,602.0,WeatherDisplay:10.37,2013-03-27 14:03:00,
2013-03-27 14:08:00,41.6,33.6,30.09,ESE,102,11.5,11.5,73,0.00,BKN,,0.01,771.0,WeatherDisplay:10.37,2013-03-27 14:08:00,
2013-03-27 14:14:00,41.6,32.5,30.09,ENE,71,11.5,11.5,70,0.00,SCT,,0.01,280.0,WeatherDisplay:10.37,2013-03-27 14:14:00,
2013-03-27 14:19:00,41.6,32.9,30.09,East,99,8.1,8.1,71,0.00,SCT,,0.01,273.0,WeatherDisplay:10.37,2013-03-27 14:19:00,
2013-03-27 14:24:00,42.3,33.6,30.09,East,83,11.5,11.5,71,0.00,FEW,,0.01,362.0,WeatherDisplay:10.37,2013-03-27 14:24:00,
2013-03-27 14:29:00,41.3,32.2,30.09,East,83,11.5,11.5,70,0.00,BKN,,0.01,243.0,WeatherDisplay:10.37,2013-03-27 14:29:00,
2013-03-27 14:34:00,41.1,33.1,30.09,ESE,109,12.0,12.0,73,0.00,OVC,,0.01,169.0,WeatherDisplay:10.37,2013-03-27 14:34:00,
2013-03-27 14:39:00,40.3,32.3,30.09,East,97,11.5,11.5,73,0.00,BKN,,0.01,253.0,WeatherDisplay:10.37,2013-03-27 14:39:00,
2013-03-27 14:44:00,40.3,34.0,30.09,NE,45,9.0,9.0,78,0.00,BKN,,0.01,213.0,WeatherDisplay:10.37,2013-03-27 14:44:00,
2013-03-27 14:50:00,40.1,33.8,30.09,East,85,11.5,11.5,78,0.00,CLR,,0.01,570.0,WeatherDisplay:10.37,2013-03-27 14:50:00,
2013-03-27 14:55:00,41.1,34.1,30.09,NE,44,12.7,12.7,76,0.00,CLR,,0.01,598.0,WeatherDisplay:10.37,2013-03-27 14:55:00,
2013-03-27 15:00:00,40.6,34.3,30.09,ESE,123,14.0,14.0,78,0.00,OVC,,0.01,70.0,WeatherDisplay:10.37,2013-03-27 15:00:00,
2013-03-27 15:05:00,39.5,34.2,30.09,East,100,11.5,11.5,81,0.00,BKN,,0.01,204.0,WeatherDisplay:10.37,2013-03-27 15:05:00,
2013-03-27 15:10:00,39.2,35.1,30.09,ESE,123,11.5,11.5,85,0.00,FEW,,0.01,331.0,WeatherDisplay:10.37,2013-03-27 15:10:00,
2013-03-27 15:15:00,38.8,35.3,30.09,East,95,8.1,8.1,87,0.00,BKN,,0.01,155.0,WeatherDisplay:10.37,2013-03-27 15:15:00,
2013-03-27 15:20:00,38.3,35.1,30.09,SSE,154,9.2,9.2,88,0.00,BKN,,0.01,167.0,WeatherDisplay:10.37,2013-03-27 15:20:00,
2013-03-27 15:26:00,38.0,34.8,30.09,NE,52,6.9,6.9,88,0.00,BKN,,0.01,176.0,WeatherDisplay:10.37,2013-03-27 15:26:00,
2013-03-27 15:31:00,38.3,35.1,30.09,East,83,8.1,8.1,88,0.00,BKN,,0.01,143.0,WeatherDisplay:10.37,2013-03-27 15:31:00,
2013-03-27 15:36:00,38.5,35.3,30.09,ESE,104,8.1,8.1,88,0.00,SCT,,0.01,241.0,WeatherDisplay:10.37,2013-03-27 15:36:00,
2013-03-27 15:41:00,38.5,35.0,30.09,East,83,10.4,10.4,87,0.00,OVC,,0.01,116.0,WeatherDisplay:10.37,2013-03-27 15:41:00,
2013-03-27 15:47:00,38.2,35.0,30.09,East,92,6.9,6.9,88,0.00,BKN,,0.01,174.0,WeatherDisplay:10.37,2013-03-27 15:47:00,
2013-03-27 15:52:00,38.2,35.2,30.09,ENE,69,10.4,10.4,89,0.00,SCT,,0.01,178.0,WeatherDisplay:10.37,2013-03-27 15:52:00,
2013-03-27 15:57:00,37.9,34.9,30.09,ENE,61,10.4,10.4,89,0.00,SCT,,0.01,208.0,WeatherDisplay:10.37,2013-03-27 15:57:00,
2013-03-27 16:02:00,38.0,35.3,30.09,ENE,66,12.7,12.7,90,0.00,BKN,,0.01,162.0,WeatherDisplay:10.37,2013-03-27 16:02:00,
2013-03-27 16:07:00,38.0,35.6,30.09,East,90,11.5,11.5,91,0.00,CLR,,0.01,354.0,WeatherDisplay:10.37,2013-03-27 16:07:00,
2013-03-27 16:12:00,38.2,35.2,30.09,ESE,106,8.1,8.1,89,0.00,BKN,,0.01,120.0,WeatherDisplay:10.37,2013-03-27 16:12:00,
2013-03-27 16:18:00,37.8,34.6,30.09,SE,134,9.2,9.2,88,0.00,CLR,,0.01,287.0,WeatherDisplay:10.37,2013-03-27 16:18:00,
2013-03-27 16:23:00,37.8,34.6,30.09,East,93,5.8,5.8,88,0.00,CLR,,0.01,297.0,WeatherDisplay:10.37,2013-03-27 16:23:00,
2013-03-27 16:28:00,37.9,34.7,30.09,ESE,114,8.1,8.1,88,0.00,CLR,,0.01,303.0,WeatherDisplay:10.37,2013-03-27 16:28:00,
2013-03-27 16:33:00,37.8,34.6,30.09,ESE,123,10.0,10.0,88,0.00,CLR,,0.01,290.0,WeatherDisplay:10.37,2013-03-27 16:33:00,
2013-03-27 16:38:00,37.8,34.3,30.09,ENE,75,8.0,8.0,87,0.00,CLR,,0.01,278.0,WeatherDisplay:10.37,2013-03-27 16:38:00,
2013-03-27 16:43:00,37.8,34.3,30.09,East,99,6.9,6.9,87,0.00,CLR,,0.01,269.0,WeatherDisplay:10.37,2013-03-27 16:43:00,
2013-03-27 16:48:00,37.9,34.4,30.09,ENE,61,8.1,8.1,87,0.00,CLR,,0.01,269.0,WeatherDisplay:10.37,2013-03-27 16:48:00,
2013-03-27 16:54:00,37.9,34.1,30.09,ESE,103,8.1,8.1,86,0.00,CLR,,0.01,317.0,WeatherDisplay:10.37,2013-03-27 16:54:00,
2013-03-27 16:59:00,38.5,34.1,30.09,East,89,8.1,8.1,84,0.00,CLR,,0.01,192.0,WeatherDisplay:10.37,2013-03-27 16:59:00,
2013-03-27 17:04:00,38.6,33.6,30.09,ENE,68,11.5,11.5,82,0.00,BKN,,0.01,70.0,WeatherDisplay:10.37,2013-03-27 17:04:00,
2013-03-27 17:09:00,38.3,33.0,30.09,ESE,107,11.5,11.5,81,0.00,SCT,,0.01,104.0,WeatherDisplay:10.37,2013-03-27 17:09:00,
2013-03-27 17:14:00,38.3,33.0,30.09,ENE,64,10.4,10.4,81,0.00,FEW,,0.01,137.0,WeatherDisplay:10.37,2013-03-27 17:14:00,
2013-03-27 17:19:00,38.5,33.5,30.09,ENE,71,13.8,13.8,82,0.00,CLR,,0.01,162.0,WeatherDisplay:10.37,2013-03-27 17:19:00,
2013-03-27 17:25:00,38.2,32.9,30.09,ENE,73,11.5,11.5,81,0.00,SCT,,0.01,79.0,WeatherDisplay:10.37,2013-03-27 17:25:00,
2013-03-27 17:30:00,38.0,32.7,30.09,ESE,121,6.9,6.9,81,0.00,SCT,,0.01,69.0,WeatherDisplay:10.37,2013-03-27 17:30:00,
2013-03-27 17:35:00,37.9,32.6,30.09,SE,138,12.7,12.7,81,0.00,SCT,,0.01,63.0,WeatherDisplay:10.37,2013-03-27 17:35:00,
2013-03-27 17:40:00,37.6,32.9,30.09,South,189,10.4,10.4,83,0.00,SCT,,0.01,49.0,WeatherDisplay:10.37,2013-03-27 17:40:00,
2013-03-27 17:45:00,37.3,32.9,30.09,SE,144,8.1,8.1,84,0.00,BKN,,0.01,35.0,WeatherDisplay:10.37,2013-03-27 17:45:00,
2013-03-27 17:50:00,37.0,32.9,30.09,SSE,155,5.8,5.8,85,0.00,BKN,,0.01,30.0,WeatherDisplay:10.37,2013-03-27 17:50:00,
2013-03-27 17:55:00,36.8,33.0,30.09,SSE,165,6.9,6.9,86,0.00,BKN,,0.01,33.0,WeatherDisplay:10.37,2013-03-27 17:55:00,
2013-03-27 18:00:00,36.5,33.0,30.09,SSE,150,5.8,5.8,87,0.00,BKN,,0.01,28.0,WeatherDisplay:10.37,2013-03-27 18:00:00,
2013-03-27 18:05:00,36.3,32.8,30.09,SSE,147,5.8,5.8,87,0.00,BKN,,0.01,26.0,WeatherDisplay:10.37,2013-03-27 18:05:00,
2013-03-27 18:11:00,36.0,32.5,30.09,ESE,123,5.8,5.8,87,0.00,SCT,,0.01,25.0,WeatherDisplay:10.37,2013-03-27 18:11:00,
2013-03-27 18:16:00,35.9,32.4,30.09,SE,127,4.6,4.6,87,0.00,SCT,,0.01,23.0,WeatherDisplay:10.37,2013-03-27 18:16:00,
2013-03-27 18:21:00,35.9,32.4,30.09,ESE,110,5.0,5.1,87,0.00,CLR,,0.01,26.0,WeatherDisplay:10.37,2013-03-27 18:21:00,
2013-03-27 18:26:00,36.0,32.2,30.09,SE,141,6.9,6.9,86,0.00,CLR,,0.01,32.0,WeatherDisplay:10.37,2013-03-27 18:26:00,
2013-03-27 18:31:00,36.2,32.1,30.09,ESE,112,11.5,11.5,85,0.00,CLR,,0.01,18.0,WeatherDisplay:10.37,2013-03-27 18:31:00,
2013-03-27 18:36:00,36.2,32.1,30.10,ESE,113,8.1,8.1,85,0.00,OVC,,0.01,11.0,WeatherDisplay:10.37,2013-03-27 18:36:00,
2013-03-27 18:41:00,36.2,31.8,30.10,SSE,157,8.1,8.1,84,0.00,OVC,,0.01,9.0,WeatherDisplay:10.37,2013-03-27 18:41:00,
2013-03-27 18:47:00,36.0,31.6,30.10,SE,145,4.6,4.6,84,0.00,OVC,,0.01,7.0,WeatherDisplay:10.37,2013-03-27 18:47:00,
2013-03-27 18:52:00,35.9,31.5,30.10,ESE,120,11.5,11.5,84,0.00,OVC,,0.01,7.0,WeatherDisplay:10.37,2013-03-27 18:52:00,
2013-03-27 18:57:00,35.8,31.7,30.10,SE,131,7.0,7.0,85,0.00,OVC,,0.01,5.0,WeatherDisplay:10.37,2013-03-27 18:57:00,
2013-03-27 19:02:00,35.8,31.7,30.09,SSE,155,6.9,6.9,85,0.00,CLR,,0.01,0.0,WeatherDisplay:10.37,2013-03-27 19:02:00,
2013-03-27 19:08:00,35.9,31.8,30.09,East,88,10.4,10.4,85,0.00,CLR,,0.01,0.0,WeatherDisplay:10.37,2013-03-27 19:08:00,
2013-03-27 19:13:00,36.2,32.1,30.10,South,172,8.0,8.0,85,0.00,CLR,,0.01,0.0,WeatherDisplay:10.37,2013-03-27 19:13:00,
2013-03-27 19:18:00,36.3,32.2,30.10,ESE,120,4.6,4.6,85,0.00,CLR,,0.01,0.0,WeatherDisplay:10.37,2013-03-27 19:18:00,
2013-03-27 19:23:00,36.3,31.9,30.10,SE,127,5.8,5.8,84,0.00,CLR,,0.01,0.0,WeatherDisplay:10.37,2013-03-27 19:23:00,
2013-03-27 19:29:00,36.2,31.8,30.10,ESE,121,6.9,6.9,84,0.00,CLR,,0.01,0.0,WeatherDisplay:10.37,2013-03-27 19:29:00,
2013-03-27 19:34:00,36.2,31.5,30.10,South,189,8.1,8.1,83,0.00,CLR,,0.01,0.0,WeatherDisplay:10.37,2013-03-27 19:34:00,
2013-03-27 19:39:00,35.9,31.2,30.10,East,88,5.0,5.0,83,0.00,CLR,,0.01,0.0,WeatherDisplay:10.37,2013-03-27 19:39:00,
2013-03-27 19:44:00,35.8,31.1,30.10,ESE,119,4.6,4.6,83,0.00,CLR,,0.01,0.0,WeatherDisplay:10.37,2013-03-27 19:44:00,
2013-03-27 19:49:00,35.5,30.8,30.10,SE,134,4.6,4.6,83,0.00,CLR,,0.01,0.0,WeatherDisplay:10.37,2013-03-27 19:49:00,
2013-03-27 19:55:00,35.3,30.7,30.10,SSE,154,4.6,4.6,83,0.00,CLR,,0.01,0.0,WeatherDisplay:10.37,2013-03-27 19:55:00,
2013-03-27 20:00:00,35.0,30.4,30.10,SSE,155,4.0,4.0,83,0.00,CLR,,0.01,0.0,WeatherDisplay:10.37,2013-03-27 20:00:00,
2013-03-27 20:05:00,34.9,30.6,30.10,SSE,154,2.3,2.3,84,0.00,CLR,,0.01,0.0,WeatherDisplay:10.37,2013-03-27 20:05:00,
2013-03-27 20:10:00,34.6,30.3,30.10,SSE,154,5.8,5.8,84,0.00,CLR,,0.01,0.0,WeatherDisplay:10.37,2013-03-27 20:10:00,
2013-03-27 20:15:00,34.4,30.4,30.10,SSE,154,3.5,3.5,85,0.00,CLR,,0.01,0.0,WeatherDisplay:10.37,2013-03-27 20:15:00,
2013-03-27 20:20:00,34.3,30.3,30.10,SE,141,3.5,3.5,85,0.00,CLR,,0.01,0.0,WeatherDisplay:10.37,2013-03-27 20:20:00,
2013-03-27 20:25:00,34.1,30.4,30.10,ESE,123,3.5,3.5,86,0.00,CLR,,0.01,0.0,WeatherDisplay:10.37,2013-03-27 20:25:00,
2013-03-27 20:31:00,33.8,30.1,30.10,ESE,114,2.3,2.3,86,0.00,CLR,,0.01,0.0,WeatherDisplay:10.37,2013-03-27 20:31:00,
2013-03-27 20:36:00,33.7,30.0,30.10,SE,138,1.2,0.0,86,0.00,CLR,,0.01,0.0,WeatherDisplay:10.37,2013-03-27 20:36:00,
2013-03-27 20:41:00,33.5,30.0,30.10,SSE,148,2.3,2.3,87,0.00,CLR,,0.01,0.0,WeatherDisplay:10.37,2013-03-27 20:41:00,
2013-03-27 20:46:00,33.4,29.9,30.10,SE,128,2.3,2.3,87,0.00,CLR,,0.01,0.0,WeatherDisplay:10.37,2013-03-27 20:46:00,
2013-03-27 20:52:00,33.2,30.0,30.10,SE,140,3.5,3.5,88,0.00,CLR,,0.01,0.0,WeatherDisplay:10.37,2013-03-27 20:52:00,
2013-03-27 20:57:00,33.2,30.0,30.10,ESE,106,2.3,2.3,88,0.00,CLR,,0.01,0.0,WeatherDisplay:10.37,2013-03-27 20:57:00,
2013-03-27 21:02:00,33.1,29.9,30.10,ESE,120,2.3,2.3,88,0.00,CLR,,0.01,0.0,WeatherDisplay:10.37,2013-03-27 21:02:00,
2013-03-27 21:07:00,32.9,30.0,30.10,ESE,112,2.3,2.3,89,0.00,CLR,,0.01,0.0,WeatherDisplay:10.37,2013-03-27 21:07:00,
2013-03-27 21:12:00,32.9,30.0,30.10,ESE,112,3.5,3.5,89,0.00,CLR,,0.01,0.0,WeatherDisplay:10.37,2013-03-27 21:12:00,
2013-03-27 21:17:00,32.9,30.0,30.10,ESE,121,2.3,2.3,89,0.00,CLR,,0.01,0.0,WeatherDisplay:10.37,2013-03-27 21:17:00,
2013-03-27 21:22:00,32.9,30.3,30.10,ESE,120,2.0,2.0,90,0.00,CLR,,0.01,0.0,WeatherDisplay:10.37,2013-03-27 21:22:00,
2013-03-27 21:27:00,32.8,30.2,30.10,ESE,119,0.0,0.0,90,0.00,CLR,,0.01,0.0,WeatherDisplay:10.37,2013-03-27 21:27:00,
2013-03-27 21:33:00,32.7,30.1,30.10,ESE,113,2.3,2.3,90,0.00,CLR,,0.01,0.0,WeatherDisplay:10.37,2013-03-27 21:33:00,
2013-03-27 21:38:00,32.5,29.9,30.10,SE,126,2.3,2.3,90,0.00,CLR,,0.01,0.0,WeatherDisplay:10.37,2013-03-27 21:38:00,
2013-03-27 21:43:00,32.5,30.2,30.10,ESE,117,3.5,3.5,91,0.00,CLR,,0.01,0.0,WeatherDisplay:10.37,2013-03-27 21:43:00,
2013-03-27 21:48:00,32.5,30.2,30.10,ESE,114,2.3,2.3,91,0.00,CLR,,0.01,0.0,WeatherDisplay:10.37,2013-03-27 21:48:00,
2013-03-27 21:54:00,32.4,30.1,30.10,ESE,119,3.5,3.5,91,0.00,CLR,,0.01,0.0,WeatherDisplay:10.37,2013-03-27 21:54:00,
2013-03-27 21:59:00,32.4,30.3,30.10,SE,124,3.5,3.5,92,0.00,CLR,,0.01,0.0,WeatherDisplay:10.37,2013-03-27 21:59:00,
2013-03-27 22:04:00,32.4,30.3,30.10,ESE,119,3.5,3.5,92,0.00,CLR,,0.01,0.0,WeatherDisplay:10.37,2013-03-27 22:04:00,
2013-03-27 22:09:00,32.2,30.1,30.10,ESE,119,2.3,2.3,92,0.00,CLR,,0.01,0.0,WeatherDisplay:10.37,2013-03-27 22:09:00,
2013-03-27 22:14:00,32.2,30.1,30.10,ESE,116,1.2,1.2,92,0.00,CLR,,0.01,0.0,WeatherDisplay:10.37,2013-03-27 22:14:00,
2013-03-27 22:20:00,32.2,30.4,30.10,ESE,119,0.0,0.0,93,0.00,CLR,,0.01,0.0,WeatherDisplay:10.37,2013-03-27 22:20:00,
2013-03-27 22:25:00,32.2,30.4,30.10,ESE,119,3.5,3.5,93,0.00,CLR,,0.01,0.0,WeatherDisplay:10.37,2013-03-27 22:25:00,
2013-03-27 22:30:00,32.1,30.3,30.10,ESE,118,0.0,3.0,93,0.00,CLR,,0.01,0.0,WeatherDisplay:10.37,2013-03-27 22:30:00,
2013-03-27 22:35:00,31.9,30.1,30.10,ESE,119,1.0,1.0,93,0.00,CLR,,0.01,0.0,WeatherDisplay:10.37,2013-03-27 22:35:00,
2013-03-27 22:40:00,31.8,30.0,30.10,ESE,114,2.3,2.3,93,0.00,CLR,,0.01,0.0,WeatherDisplay:10.37,2013-03-27 22:40:00,
2013-03-27 22:45:00,31.8,30.3,30.10,ESE,117,2.3,2.3,94,0.00,CLR,,0.01,0.0,WeatherDisplay:10.37,2013-03-27 22:45:00,
2013-03-27 22:51:00,31.9,30.4,30.10,ESE,103,3.0,3.0,94,0.00,CLR,,0.01,0.0,WeatherDisplay:10.37,2013-03-27 22:51:00,
2013-03-27 22:56:00,32.2,30.9,30.10,ESE,114,2.3,2.3,95,0.00,CLR,,0.01,0.0,WeatherDisplay:10.37,2013-03-27 22:56:00,
2013-03-27 23:02:00,32.4,31.1,30.10,ESE,121,3.5,3.5,95,0.00,CLR,,0.01,0.0,WeatherDisplay:10.37,2013-03-27 23:02:00,
2013-03-27 23:07:00,32.5,31.2,30.10,ESE,106,3.5,3.5,95,0.00,CLR,,0.01,0.0,WeatherDisplay:10.37,2013-03-27 23:07:00,
2013-03-27 23:12:00,32.5,31.2,30.10,ESE,121,3.5,3.5,95,0.00,CLR,,0.01,0.0,WeatherDisplay:10.37,2013-03-27 23:12:00,
2013-03-27 23:17:00,32.7,31.4,30.09,SE,131,1.2,1.2,95,0.00,CLR,,0.01,0.0,WeatherDisplay:10.37,2013-03-27 23:17:00,
2013-03-27 23:22:00,32.7,31.4,30.09,SE,124,2.3,2.3,95,0.00,CLR,,0.01,0.0,WeatherDisplay:10.37,2013-03-27 23:22:00,
2013-03-27 23:27:00,32.5,31.2,30.09,SE,133,3.5,3.5,95,0.00,CLR,,0.01,0.0,WeatherDisplay:10.37,2013-03-27 23:27:00,
2013-03-27 23:32:00,32.5,31.2,30.09,SE,128,2.3,2.3,95,0.00,CLR,,0.01,0.0,WeatherDisplay:10.37,2013-03-27 23:32:00,
2013-03-27 23:37:00,32.5,31.5,30.09,SE,128,2.3,2.3,96,0.00,CLR,,0.01,0.0,WeatherDisplay:10.37,2013-03-27 23:37:00,
2013-03-27 23:43:00,32.5,31.5,30.10,SE,128,2.3,2.3,96,0.00,CLR,,0.01,0.0,WeatherDisplay:10.37,2013-03-27 23:43:00,
2013-03-27 23:48:00,32.7,31.7,30.10,SE,127,3.5,3.5,96,0.00,CLR,,0.01,0.0,WeatherDisplay:10.37,2013-03-27 23:48:00,
2013-03-27 23:53:00,32.7,31.7,30.10,SE,131,2.3,2.3,96,0.00,CLR,,0.01,0.0,WeatherDisplay:10.37,2013-03-27 23:53:00,
2013-03-27 23:58:00,32.8,31.8,30.10,SE,133,2.3,2.3,96,0.00,CLR,,0.01,0.0,WeatherDisplay:10.37,2013-03-27 23:58:00,